| time (UTC) | temp C | wind direction | speed KPH | gust KPH | rain 1hr cm | rain 24hr cm | rain mn cm | humidity % | barometer mb |
| 20260504201526 | 20 | 273 | 3.2 | 16.1 | 0.00 | 0.00 | 0.00 | 31 | 1015.5 |
| 20260504200025 | 21 | 242 | 3.2 | 14.5 | 0.00 | 0.00 | 0.00 | 31 | 1015.7 |
| 20260504194524 | 20 | 226 | 3.2 | 11.3 | 0.00 | 0.00 | 0.00 | 29 | 1015.8 |
| 20260504193022 | 21 | 259 | 1.6 | 9.7 | 0.00 | 0.00 | 0.00 | 29 | 1016.2 |
| 20260504191520 | 20 | 148 | 3.2 | 9.7 | 0.00 | 0.00 | 0.00 | 30 | 1016.4 |
| 20260504190019 | 20 | 248 | 4.8 | 12.9 | 0.00 | 0.00 | 0.00 | 29 | 1016.4 |
| 20260504184619 | 21 | 244 | 8.0 | 20.9 | 0.00 | 0.00 | 0.00 | 32 | 1016.5 |
| 20260504183015 | 20 | 271 | 6.4 | 20.9 | 0.00 | 0.00 | 0.00 | 30 | 1016.8 |
| 20260504181513 | 20 | 286 | 6.4 | 20.9 | 0.00 | 0.00 | 0.00 | 33 | 1017.1 |
| 20260504180013 | 20 | 261 | 6.4 | 20.9 | 0.00 | 0.00 | 0.00 | 33 | 1017.2 |
| 20260504174510 | 18 | 263 | 6.4 | 14.5 | 0.00 | 0.00 | 0.00 | 30 | 1017.2 |
| 20260504173009 | 18 | 265 | 4.8 | 17.7 | 0.00 | 0.00 | 0.00 | 32 | 1017.4 |
| 20260504171504 | 18 | 229 | 8.0 | 14.5 | 0.00 | 0.00 | 0.00 | 33 | 1017.5 |
| 20260504081600 | 1 | 303 | 0.0 | 1.6 | 0.00 | 0.00 | 0.00 | 66 | 1018.7 |
| 20260504044531 | 4 | 302 | 0.0 | 6.4 | 0.00 | 0.00 | 0.00 | 54 | 1019.4 |
| 20260504043038 | 4 | 275 | 0.0 | 0.0 | 0.00 | 0.00 | 0.00 | 54 | 1019.4 |
| 20260504041527 | 4 | 275 | 0.0 | 0.0 | 0.00 | 0.00 | 0.00 | 52 | 1019.3 |
| 20260504040026 | 4 | 275 | 0.0 | 1.6 | 0.00 | 0.00 | 0.00 | 51 | 1019.2 |
| 20260504034525 | 5 | 275 | 0.0 | 0.0 | 0.00 | 0.00 | 0.00 | 48 | 1019.3 |
| 20260504033023 | 5 | 275 | 0.0 | 0.0 | 0.00 | 0.00 | 0.00 | 47 | 1019.1 |
| 20260504031523 | 6 | 275 | 0.0 | 3.2 | 0.00 | 0.00 | 0.00 | 41 | 1019.1 |
| 20260504030026 | 6 | 274 | 0.0 | 3.2 | 0.00 | 0.00 | 0.00 | 43 | 1018.9 |
| 20260504024521 | 7 | 360 | 0.0 | 4.8 | 0.00 | 0.00 | 0.00 | 40 | 1019.3 |
| 20260504023021 | 7 | 360 | 0.0 | 0.0 | 0.00 | 0.00 | 0.00 | 39 | 1019.3 |
| 20260504021520 | 7 | 275 | 0.0 | 3.2 | 0.00 | 0.00 | 0.00 | 38 | 1019.4 |
| 20260504020020 | 8 | 266 | 1.6 | 6.4 | 0.00 | 0.00 | 0.00 | 33 | 1019.0 |
| 20260504014530 | 8 | 281 | 1.6 | 6.4 | 0.00 | 0.00 | 0.00 | 34 | 1018.9 |
| 20260504013032 | 8 | 273 | 1.6 | 6.4 | 0.00 | 0.00 | 0.00 | 34 | 1018.8 |
| 20260504011521 | 8 | 289 | 1.6 | 6.4 | 0.00 | 0.00 | 0.00 | 34 | 1018.8 |
| 20260504010118 | 8 | 360 | 1.6 | 6.4 | 0.00 | 0.00 | 0.00 | 35 | 1018.6 |
| 20260504004518 | 8 | 360 | 0.0 | 1.6 | 0.00 | 0.00 | 0.00 | 38 | 1018.5 |
| 20260504003017 | 10 | 360 | 1.6 | 6.4 | 0.00 | 0.00 | 0.00 | 33 | 1018.5 |
| 20260504001516 | 11 | 360 | 0.0 | 9.7 | 0.00 | 0.00 | 0.00 | 25 | 1018.4 |
| 20260504000015 | 11 | 281 | 1.6 | 9.7 | 0.00 | 0.00 | 0.00 | 26 | 1018.4 |
| 20260503234515 | 12 | 342 | 1.6 | 6.4 | 0.00 | 0.00 | 0.00 | 23 | 1018.3 |
| 20260503233020 | 13 | 252 | 1.6 | 6.4 | 0.00 | 0.00 | 0.00 | 21 | 1018.3 |
| 20260503231516 | 13 | 247 | 1.6 | 11.3 | 0.00 | 0.00 | 0.00 | 19 | 1018.1 |
| 20260503230016 | 14 | 261 | 3.2 | 12.9 | 0.00 | 0.00 | 0.00 | 16 | 1018.1 |
| 20260503224512 | 14 | 26 | 3.2 | 14.5 | 0.00 | 0.00 | 0.00 | 16 | 1018.2 |
| 20260503223012 | 15 | 337 | 6.4 | 14.5 | 0.00 | 0.00 | 0.00 | 16 | 1018.2 |
| 20260503221511 | 15 | 286 | 6.4 | 20.9 | 0.00 | 0.00 | 0.00 | 14 | 1018.3 |
| 20260503220113 | 15 | 261 | 4.8 | 14.5 | 0.00 | 0.00 | 0.00 | 13 | 1018.3 |
| 20260503214509 | 15 | 281 | 3.2 | 16.1 | 0.00 | 0.00 | 0.00 | 15 | 1018.4 |
| 20260503213108 | 15 | 20 | 8.0 | 19.3 | 0.00 | 0.00 | 0.00 | 12 | 1018.8 |
| 20260503211506 | 16 | 286 | 4.8 | 17.7 | 0.00 | 0.00 | 0.00 | 11 | 1018.8 |
| 20260503210006 | 16 | 257 | 4.8 | 16.1 | 0.00 | 0.00 | 0.00 | 13 | 1019.0 |
| 20260503204505 | 15 | 248 | 8.0 | 20.9 | 0.00 | 0.00 | 0.00 | 13 | 1019.1 |
| 20260503203010 | 15 | 261 | 8.0 | 17.7 | 0.00 | 0.00 | 0.00 | 16 | 1019.1 |